Location: Unspecified
(0.0000°N, 0.0000°E)
Time: 16:18:33
(UTC+00:00)

CORIOLIS - Visible Passes

Search period start: 21 April 2019 00:00
Search period end: 01 May 2019 00:00
Orbit: 818 x 839 km, 98.7° (Epoch: 21 April)

Date Brightness Start Highest point End Pass type
(mag) Time Alt. Az. Time Alt. Az. Time Alt. Az.
21 Apr 6.1 05:31:20 10° NE 05:36:05 34° ESE 05:40:52 10° SSE visible
22 Apr 6.8 05:14:01 10° NE 05:17:54 21° ESE 05:21:47 10° SSE visible
23 Apr 7.2 04:57:41 10° E 04:59:43 12° ESE 05:01:44 10° SE visible
23 Apr 7.0 19:17:52 10° SW 19:20:35 14° WSW 19:23:19 10° WNW visible
24 Apr 6.6 18:58:11 10° SSW 19:02:24 23° WSW 19:06:37 10° NW visible
25 Apr 5.8 18:39:13 10° S 18:44:13 37° WSW 18:49:12 10° NW visible
26 Apr 4.8 18:20:39 10° S 18:26:02 62° WSW 18:31:23 10° NNW visible
27 Apr 6.5 05:22:27 10° NE 05:26:50 26° ESE 05:31:14 10° SSE visible
28 Apr 6.9 05:05:29 10° ENE 05:08:39 16° ESE 05:11:49 10° SE visible
28 Apr 7.3 19:28:34 10° WSW 19:29:32 10° WSW 19:30:31 10° W visible
29 Apr 6.9 19:07:45 10° SW 19:11:22 18° WSW 19:14:59 10° WNW visible
30 Apr 6.2 18:48:31 10° SSW 18:53:10 29° WSW 18:57:50 10° NW visible
